[[{"header":{"parameterUnit":"m.s-1","parameterCategory":1,"la1":30.2991,"la2":30.254,"lo1":-89.0895,"lo2":-89.0444,"dy":0.0017,"dx":0.0017,"nx":28,"ny":28,"refTime":"2025-04-06T09:00:00:Z","depth":0,"parameterNumber":2,"parameterNumberName":"U-component_of_WINDS"},"data":[0,0,0,0,0,0,0,0,0,0,0,0,0,0,0,0,0,0,0,0,0,0,0,0,0,0,0,0,0,0,0,0,0,0,0,0,0,0,0,0,0,0,0,0,0,0,0,0,0,0,0,0,0,0,0,0,0,0,3.188,3.188,0,3.1949,3.195,3.1951,3.1928,3.1927,3.1926,3.1924,3.1994,3.1997,3.2001,0,0,0,0,0,0,0,0,0,0,0,0,0,3.1728,3.1731,3.188,3.188,3.1881,3.1949,3.195,3.1951,3.1929,3.1927,3.1925,3.1923,3.1993,3.1997,3.2001,0,0,0,0,0,0,0,0,0,0,0,0,0,3.1796,3.1732,3.1879,3.1879,3.1879,3.1949,3.195,3.1951,3.1929,3.1927,3.1925,3.1923,3.1992,3.1997,3.2001,3.2076,0,0,3.2016,3.2018,0,0,0,0,0,0,0,0,3.1792,3.1801,3.1878,3.1879,3.188,3.1928,3.1922,3.1993,3.193,3.191,3.1924,3.1922,3.1974,3.198,3.1998,3.2079,3.2082,3.2017,3.202,3.2022,3.2023,0,0,0,0,0,0,0,3.1787,3.1798,3.1907,3.1879,3.188,3.1875,3.1882,3.1935,3.1954,3.1912,3.191,3.1919,3.1974,3.1993,3.1999,3.2083,3.2017,3.2021,3.2024,3.2026,3.2231,3.2233,0,0,0,0,0,0,3.1782,3.1794,3.1905,3.1909,3.1829,3.1879,3.1887,3.1915,3.1953,3.1957,3.1921,3.1917,3.1986,3.1994,3.2002,3.2092,3.2022,3.2026,3.2029,3.2228,3.2231,3.2234,0,0,0,0,0,0,3.1779,3.1792,3.1902,3.1851,3.1865,3.1884,3.1915,3.1917,3.1936,3.196,3.1963,3.1937,3.1985,3.1995,3.2058,3.2094,3.2028,3.2033,3.2225,3.2229,3.2232,3.2273,0,0,0,0,0,0,3.1775,3.1791,3.1819,3.1852,3.1868,3.1957,3.1917,3.192,3.1945,3.1942,3.1976,3.1979,3.1984,3.2051,3.2063,3.21,3.2037,3.2222,3.2227,3.2231,3.2269,3.2278,3.2286,0,0,0,0,0,3.1769,3.1828,3.1821,3.1834,3.1904,3.1959,3.1968,3.1972,3.1948,3.1977,3.1992,3.1978,3.2089,3.2058,3.2071,3.211,3.222,3.2225,3.2231,3.2265,3.2276,3.2286,0,0,0,0,0,0,3.1798,3.1832,3.1825,3.1895,3.1925,3.1955,3.1991,3.1983,3.202,3.2015,3.2018,3.2026,3.2091,3.2107,3.2072,3.2185,3.2151,3.2159,3.2172,3.2183,3.2191,3.2186,3.2041,0,0,0,0,0,3.1812,3.1855,3.1882,3.1942,3.1957,3.1972,3.1996,3.1997,3.2027,3.2039,3.2059,3.2089,3.213,3.2158,3.2197,3.2271,3.2279,3.2305,3.2314,3.232,3.2328,3.237,3.2382,3.2252,3.2252,3.2252,0,0,3.1842,3.1866,3.1893,3.1948,3.1971,3.2015,3.1982,3.203,3.2063,3.2046,3.2107,3.2123,3.2157,3.2226,3.2258,3.2241,3.2365,3.2328,3.2333,3.2337,3.2377,3.2389,3.24,3.2256,3.2256,3.2255,0,0,3.192,3.1942,3.1995,3.2019,3.2054,3.2064,3.2077,3.211,3.212,3.2181,3.217,3.221,3.2281,3.2305,3.2327,3.2417,3.2406,3.243,3.2474,3.2515,3.2525,3.2534,3.2567,3.2579,3.2437,3.2437,3.2437,0,3.1953,3.2019,3.2023,3.2072,3.2097,3.2086,3.214,3.2162,3.2209,3.2226,3.2207,3.2298,3.2319,3.2395,3.2417,3.2435,3.245,3.2425,3.2523,3.2533,3.2541,3.2572,3.2585,3.244,3.2439,3.2439,3.2439,0,3.2059,3.2105,3.2143,3.2189,3.2219,3.227,3.2282,3.2311,3.231,3.2322,3.2386,3.2412,3.2457,3.2475,3.2473,3.2551,3.254,3.2522,3.2488,3.2556,3.2585,3.2597,3.2444,3.2443,3.2442,3.2441,0,0,3.2155,3.2204,3.2218,3.2239,3.2278,3.2314,3.2365,3.241,3.2435,3.2468,3.2512,3.2573,3.2558,3.2583,3.2584,3.262,3.2691,3.2598,3.2599,3.2615,3.2779,3.2792,3.2806,3.2684,3.2686,3.2688,3.2776,0,3.2236,3.2326,3.2332,3.2414,3.2457,3.2448,3.2493,3.2522,3.2535,3.2574,3.2588,3.2632,3.2608,3.2623,3.2658,3.2675,3.2724,3.2668,3.2725,3.2727,3.2717,3.2821,3.2834,3.2916,3.2788,3.279,3.2791,0,3.2343,3.238,3.2466,3.2501,3.2519,3.2559,3.2601,3.2639,3.2672,3.2679,3.2708,3.2705,3.2758,3.2723,3.2797,3.2759,3.2783,3.2795,3.2798,3.2803,3.2763,3.2829,3.2942,3.2955,3.2809,3.2808,3.2806,0,3.2405,3.2476,3.2538,3.2556,3.2598,3.2626,3.2645,3.2676,3.2703,3.274,3.2758,3.2801,3.2824,3.2858,3.2867,3.284,3.2941,3.2906,3.2949,3.2949,3.297,3.2968,3.3089,3.2985,3.2985,3.2985,3.2985,0,3.2495,3.2549,3.2566,3.2604,3.2664,3.2671,3.273,3.2747,3.2775,3.2816,3.281,3.2849,3.2859,3.29,3.2907,3.2968,3.2978,3.2986,3.2987,3.2987,3.2986,3.3002,3.2997,3.2988,3.2987,3.2987,3.2986,0,3.2575,3.2589,3.2655,3.2689,3.2699,3.2742,3.2771,3.2808,3.2821,3.2873,3.2886,3.2907,3.2955,3.2967,3.3024,3.303,3.3101,3.3097,3.309,3.309,3.3133,3.3129,3.3267,3.3286,3.317,3.3171,3.3172,0,3.2631,3.2672,3.2711,3.2739,3.2759,3.2803,3.2831,3.284,3.2869,3.2911,3.2943,3.299,3.3029,3.3106,3.3126,3.317,3.3167,3.3213,3.3174,3.3172,3.3169,3.3166,3.3171,3.322,3.3222,3.3223,3.3223,0,3.273,3.2736,3.2776,3.282,3.2854,3.2889,3.2922,3.2945,3.2958,3.2992,3.3041,3.3071,3.313,3.3178,3.3223,3.3242,3.3236,3.3236,3.3248,3.3248,3.3242,3.3246,3.3111,3.3232,3.3231,3.3231,3.323,3.323,3.28,3.2837,3.2871,3.2917,3.2943,3.2975,3.3011,3.3029,3.3071,3.312,3.3122,3.3176,3.321,3.327,3.3292,3.3335,3.3321,3.3339,3.3343,3.3348,3.3352,3.3236,3.3343,3.3343,3.3343,3.3342,3.3342,0,3.29,3.2921,3.2964,3.3011,3.3048,3.3039,3.3076,3.3107,3.3154,3.3186,3.3225,3.3282,3.3329,3.3353,3.34,3.3429,3.3428,3.3441,3.3439,3.3444,3.3361,3.3346,3.3442,3.3442,3.3442,3.3442,3.3442,3.3442,3.2956,3.3017,3.3027,3.3102,3.3124,3.3177,3.3199,3.3228,3.3254,3.3319,3.3358,3.3373,3.3403,3.3452,3.3495,3.3501,3.3518,3.3534,3.3538,3.346,3.345,3.344,3.3426,3.3537,3.3538,3.3618,3.3619,3.3619]},{"header":{"parameterUnit":"m.s-1","parameterCategory":1,"la1":30.2991,"la2":30.254,"lo1":-89.0895,"lo2":-89.0444,"dy":0.0017,"dx":0.0017,"nx":28,"ny":28,"refTime":"2025-04-06T09:00:00:Z","depth":0,"parameterNumber":3,"parameterNumberName":"V-component_of_WINDS"},"data":[0,0,0,0,0,0,0,0,0,0,0,0,0,0,0,0,0,0,0,0,0,0,0,0,0,0,0,0,0,0,0,0,0,0,0,0,0,0,0,0,0,0,0,0,0,0,0,0,0,0,0,0,0,0,0,0,0,0,-7.4761,-7.4763,0,-7.4926,-7.4928,-7.493,-7.489,-7.4887,-7.4884,-7.4881,-7.5047,-7.5054,-7.5062,0,0,0,0,0,0,0,0,0,0,0,0,0,-7.4407,-7.4414,-7.4761,-7.4763,-7.4765,-7.4926,-7.4928,-7.4931,-7.4891,-7.4887,-7.4883,-7.4879,-7.5045,-7.5053,-7.5062,0,0,0,0,0,0,0,0,0,0,0,0,0,-7.4566,-7.4416,-7.476,-7.4765,-7.4767,-7.4926,-7.4929,-7.4931,-7.4892,-7.4887,-7.4882,-7.4878,-7.5042,-7.5052,-7.5063,-7.5228,0,0,-7.5097,-7.5102,0,0,0,0,0,0,0,0,-7.4557,-7.4579,-7.4762,-7.4765,-7.4767,-7.4883,-7.4865,-7.5031,-7.4893,-7.4844,-7.4881,-7.4875,-7.4996,-7.5011,-7.5052,-7.5235,-7.5243,-7.5098,-7.5105,-7.511,-7.5113,0,0,0,0,0,0,0,-7.4546,-7.4571,-7.4826,-7.4765,-7.4768,-7.4757,-7.4774,-7.4896,-7.4945,-7.4848,-7.4845,-7.4866,-7.4997,-7.5041,-7.5056,-7.5245,-7.5098,-7.5108,-7.5115,-7.5119,-7.5572,-7.5577,0,0,0,0,0,0,-7.4533,-7.4562,-7.4821,-7.4831,-7.4648,-7.4768,-7.4787,-7.485,-7.4943,-7.4953,-7.487,-7.4863,-7.5025,-7.5043,-7.5061,-7.526,-7.511,-7.512,-7.5127,-7.5566,-7.5573,-7.5579,0,0,0,0,0,0,-7.4526,-7.4557,-7.4814,-7.4696,-7.4728,-7.4779,-7.4851,-7.4856,-7.4901,-7.496,-7.4968,-7.4907,-7.5022,-7.5046,-7.5187,-7.5265,-7.5125,-7.5135,-7.556,-7.5568,-7.5576,-7.5658,0,0,0,0,0,0,-7.4516,-7.4554,-7.4618,-7.4698,-7.4735,-7.4938,-7.4855,-7.4863,-7.4921,-7.4914,-7.4997,-7.5006,-7.502,-7.5171,-7.5198,-7.5278,-7.5144,-7.5553,-7.5564,-7.5573,-7.5649,-7.5668,-7.5685,0,0,0,0,0,-7.4503,-7.4633,-7.4621,-7.4652,-7.4815,-7.4943,-7.4964,-7.4978,-7.4927,-7.4991,-7.5029,-7.5003,-7.5252,-7.5185,-7.5216,-7.53,-7.5548,-7.5561,-7.5573,-7.5641,-7.5664,-7.5684,0,0,0,0,0,0,-7.4559,-7.4644,-7.4631,-7.4791,-7.486,-7.4936,-7.5017,-7.5003,-7.5086,-7.5076,-7.509,-7.5109,-7.5253,-7.5291,-7.5215,-7.5464,-7.5393,-7.5412,-7.5434,-7.5457,-7.5475,-7.5462,-7.5153,0,0,0,0,0,-7.4591,-7.4688,-7.4756,-7.4891,-7.4926,-7.4966,-7.5022,-7.5027,-7.5099,-7.5127,-7.5175,-7.5245,-7.5339,-7.54,-7.549,-7.5654,-7.5672,-7.5727,-7.5745,-7.576,-7.5776,-7.5866,-7.5891,-7.5618,-7.5618,-7.5618,0,0,-7.4656,-7.4714,-7.4774,-7.4904,-7.4958,-7.5058,-7.4991,-7.5099,-7.5173,-7.5143,-7.528,-7.5318,-7.5396,-7.555,-7.562,-7.5586,-7.5855,-7.5775,-7.5786,-7.5794,-7.5881,-7.5906,-7.5929,-7.5627,-7.5625,-7.5624,0,0,-7.4825,-7.488,-7.4998,-7.5054,-7.5137,-7.5163,-7.5191,-7.527,-7.5294,-7.5432,-7.5412,-7.5499,-7.5661,-7.5718,-7.5768,-7.596,-7.594,-7.5989,-7.6083,-7.617,-7.6192,-7.6211,-7.6279,-7.6304,-7.6005,-7.6005,-7.6005,0,-7.4895,-7.5046,-7.506,-7.5171,-7.5228,-7.5208,-7.5328,-7.5381,-7.5489,-7.5528,-7.5489,-7.5692,-7.5743,-7.591,-7.5957,-7.5999,-7.6031,-7.5979,-7.6188,-7.6207,-7.6225,-7.6291,-7.6316,-7.601,-7.601,-7.6009,-7.6009,0,-7.5128,-7.5233,-7.5318,-7.5425,-7.5492,-7.5606,-7.5637,-7.5703,-7.5703,-7.5733,-7.5873,-7.5934,-7.6036,-7.6076,-7.6076,-7.6244,-7.622,-7.6184,-7.6113,-7.6256,-7.6318,-7.6343,-7.6018,-7.6016,-7.6015,-7.6013,0,0,-7.5337,-7.545,-7.5482,-7.553,-7.5621,-7.5701,-7.5815,-7.5916,-7.5972,-7.6048,-7.6143,-7.6281,-7.6249,-7.6305,-7.6312,-7.6389,-7.6538,-7.6344,-7.6346,-7.6377,-7.6726,-7.6752,-7.678,-7.6525,-7.653,-7.6534,-7.6719,0,-7.5514,-7.5716,-7.5732,-7.5913,-7.601,-7.5992,-7.6091,-7.6157,-7.6188,-7.6274,-7.6308,-7.6405,-7.6356,-7.639,-7.6466,-7.6504,-7.6608,-7.649,-7.6613,-7.6617,-7.6593,-7.6813,-7.6841,-7.7012,-7.6743,-7.6747,-7.675,0,-7.5748,-7.5832,-7.6023,-7.6101,-7.6142,-7.6231,-7.6325,-7.6408,-7.6482,-7.6499,-7.6564,-7.656,-7.6676,-7.6601,-7.6761,-7.6681,-7.6732,-7.6758,-7.6765,-7.6777,-7.6692,-7.683,-7.7067,-7.7093,-7.6788,-7.6785,-7.6783,0,-7.5881,-7.6041,-7.6177,-7.6218,-7.6313,-7.6376,-7.6418,-7.6488,-7.6547,-7.6629,-7.6668,-7.6762,-7.6814,-7.6886,-7.6908,-7.6851,-7.7068,-7.6994,-7.7084,-7.7084,-7.713,-7.7127,-7.7379,-7.7164,-7.7163,-7.7163,-7.7162,0,-7.6077,-7.6195,-7.6238,-7.6321,-7.6452,-7.647,-7.6599,-7.6637,-7.67,-7.6789,-7.6779,-7.6863,-7.6887,-7.6976,-7.6993,-7.7123,-7.7146,-7.7163,-7.7166,-7.7164,-7.7161,-7.7197,-7.7185,-7.717,-7.7168,-7.7167,-7.7166,0,-7.6247,-7.6281,-7.6427,-7.6505,-7.6528,-7.6621,-7.6687,-7.6767,-7.6796,-7.691,-7.6938,-7.6984,-7.7088,-7.7117,-7.7241,-7.7252,-7.7405,-7.7397,-7.738,-7.738,-7.7468,-7.746,-7.7752,-7.7791,-7.755,-7.7553,-7.7555,0,-7.637,-7.6461,-7.6549,-7.6609,-7.6654,-7.675,-7.6812,-7.6833,-7.6897,-7.699,-7.7058,-7.7161,-7.7244,-7.741,-7.7454,-7.7549,-7.7543,-7.7639,-7.7557,-7.7552,-7.7544,-7.7538,-7.7547,-7.7654,-7.7657,-7.7659,-7.766,0,-7.6585,-7.6597,-7.6687,-7.6783,-7.6857,-7.6933,-7.7006,-7.7056,-7.7087,-7.716,-7.7266,-7.7331,-7.7458,-7.756,-7.7656,-7.7698,-7.7685,-7.7686,-7.7712,-7.771,-7.7696,-7.7705,-7.7422,-7.7679,-7.7677,-7.7676,-7.7675,-7.7674,-7.6735,-7.6814,-7.6889,-7.6989,-7.7047,-7.7116,-7.7195,-7.7235,-7.7325,-7.7431,-7.7438,-7.7553,-7.7626,-7.7754,-7.7801,-7.7891,-7.7863,-7.79,-7.791,-7.7918,-7.7926,-7.7683,-7.7909,-7.7908,-7.7908,-7.7907,-7.7907,0,-7.6949,-7.6996,-7.7088,-7.7192,-7.7271,-7.7253,-7.7333,-7.74,-7.7502,-7.7571,-7.7654,-7.7776,-7.7875,-7.7928,-7.8026,-7.8088,-7.8084,-7.8113,-7.8108,-7.8118,-7.7946,-7.7914,-7.8115,-7.8114,-7.8114,-7.8114,-7.8114,-7.8114,-7.7069,-7.7203,-7.7224,-7.7386,-7.7433,-7.7547,-7.7594,-7.7658,-7.7713,-7.7851,-7.7934,-7.7968,-7.803,-7.8133,-7.8223,-7.8236,-7.8272,-7.8305,-7.8314,-7.8152,-7.813,-7.811,-7.808,-7.8313,-7.8313,-7.8479,-7.8481,-7.8482]}]]